Overview Statistics Trail Chart Weather Telemetry Raw packets
 

This is the latest recevied weather packets stored in our database for station/object K5BOU. If no packets are shown the sender has not sent any weather packets the latest 10 day(s).

<< 63 64 65 66 67 68 69 >>
Time Temp. Humidity Pressure Rain* Wind** Luminosity Snow
1788222849 31.11° C 77% 1011.7 hPa 0 mm - 11 W/m² -
1788222547 31.11° C 77% 1012 hPa 0 mm - 14 W/m² -
1788222247 31.67° C 76% 1011.8 hPa 0 mm - 16 W/m² -
1788221941 31.67° C 76% 1011.8 hPa 0 mm - 16 W/m² -
1788221636 31.67° C 76% 1011.8 hPa 0 mm - 17 W/m² -
1788221332 31.67° C 76% 1011.9 hPa 0 mm - 18 W/m² -
1788221027 31.67° C 76% 1011.8 hPa 0 mm - 16 W/m² -
1788220725 31.67° C 75% 1011.9 hPa 0 mm - 15 W/m² -
1788220422 31.67° C 76% 1011.8 hPa 0 mm - 14 W/m² -
1788220117 31.67° C 76% 1011.8 hPa 0 mm - 13 W/m² -
1788219817 31.67° C 76% 1011.9 hPa 0 mm - 14 W/m² -
1788219512 32.22° C 76% 1011.9 hPa 0 mm - 16 W/m² -
1788219207 32.22° C 75% 1011.9 hPa 0 mm - 18 W/m² -
1788218903 32.22° C 75% 1011.8 hPa 0 mm - 24 W/m² -
1788218599 32.78° C 74% 1011.7 hPa 0 mm - 38 W/m² -
1788218295 33.33° C 68% 1011.8 hPa 0 mm - 61 W/m² -
1788217991 33.89° C 63% 1011.7 hPa 0 mm - 85 W/m² -
1788217686 33.89° C 63% 1011.6 hPa 0 mm - 95 W/m² -
1788217381 34.44° C 61% 1011.5 hPa 0 mm - 176 W/m² -
1788217080 35° C 62% 1011.6 hPa 0 mm - 180 W/m² -
1788216775 34.44° C 61% 1011.7 hPa 0 mm - 232 W/m² -
1788216471 35° C 62% 1011.6 hPa 0 mm - 153 W/m² -
1788216166 35° C 60% 1011.7 hPa 0 mm - 265 W/m² -
1788215861 35° C 61% 1012 hPa 0 mm - 367 W/m² -
1788215557 34.44° C 62% 1011.9 hPa 0 mm - 248 W/m² -

* Rain latest hour (hover to see other rain measurements)
** Current wind speed in m/s (hover to see current wind gust speed)